IRIDIUM 33 DEB

Satellite information

Favourite Embed

Satellite Type and Status

DEBRISIN ORBIT

Key statistics

Satellite IRIDIUM 33 DEB at a glance.

Uptime

10317

Days in orbit

Revolutions

≈ 14.9

Per day

Orbit

LEO

Low Earth Orbit

Inclination

86.4

Latest

Satellite identification and parameters

Extended collection of information and parameters for IRIDIUM 33 DEB.

Object identification

Identified? True

Debris? True

Object name: IRIDIUM 33 DEB

International designator: 1997-051CX

Object number (NORAD): 34088

Object ID (CCSDS): 34088

Country: UNITED STATES OF AMERICA (US)

Current information (Y/N): Y

RCS size: MEDIUM

Orbital parameters

Period: 96.557 minutes

Inclination: 86.3851 deg

SMA: 6971.879 km

Apoapsis: 597.634 km

Periapsis: 589.853 km

RAAN: 30.9947 deg

Eccentricy: 0.00055799

Argument of periapsis: 178.9664 deg

Mean anomaly: 234.6455 deg

Mean motion: 14.91344676 rev/day

Mean motion (dot): 0.00035146 rev/day2

B* drag term: 0.0035088901 1/REarth

Two-line elements (TLE)

Creation date: Dec. 12, 2025, 10:14 a.m.

Reference frame: TEME

Reference center: EARTH

Epoch: Dec. 12, 2025, 3:36 a.m. UTC

TLE line 0: 0 IRIDIUM 33 DEB

TLE line 1: 1 34088U 97051CX 25346.15023596 .00035146 00000-0 35089-2 0 9992

TLE line 2: 2 34088 86.3851 30.9947 0005580 178.9664 234.6455 14.91344676887330

Live tracking on map

Real-time ground track for satellite IRIDIUM 33 DEB.

In-orbit conjunctions

A list of the most updated potential collisions computed for object IRIDIUM 33 DEB.

Target Orbit TCA Probability of collision Miss distance Type
CZ-4 DEB SSO 2025-07-12 03:33:32 0.0004549408 47.0 (m) DEBRIS
MAST SSO 2025-01-12 03:14:14 0.000300596 574.0 (m) PAYLOAD
FENGYUN 1C DEB SSO 2024-11-27 17:01:59 0.0002259919 51.0 (m) DEBRIS
CZ-4C R/B LEO 2024-11-21 19:09:02 0.0006002316 349.0 (m) ROCKET BODY
SINAH 1 SSO 2024-09-25 06:47:54 0.0001213065 804.0 (m) PAYLOAD

Associated space launch

Iridium provides global mobile telecommunications services using a constellation of 66 low earth orbit satellites in a 86.4° inclined orbit. Although 77 satellites were originally envisioned for the system and spawned the name based on the 77th element in the periodic table, the system has been scaled back. Motorola's Satellite Communications Group designed and manufactured the Iridium satellites with Lockheed Martin providing the LM-700A spacecraft buses.

IRIDIUM 33 DEB was lifted into orbit during the mission ‘Proton-K/17S40 | Iridium 27 to 33’, on board a Proton-K/17S40 space rocket.

The launch took place on Sept. 14, 1997, 1:36 a.m. from 81/23 (81L).

For more information about the launch, click the button.

Launch to space Proton-K/17S40 | Iridium 27 to 33
Proton-K/17S40 | Iridium 27 to 33

Agency: N/A

Status: Launch Successful

Launch date: Sept. 14, 1997, 1:36 a.m. UTC

Rocket: Proton-K/17S40

Launch pad: 81/23 (81L)

Location: Baikonur Cosmodrome, Republic of Kazakhstan

...

Latest news about this satellite

There are no fresh news available about this satellite. Check back as we update our databases every day.


Newsletter sign-up

Weekly statistics, charts and insights to help you stay on top of the space industry.